Hourly Weather Roundup
Issued by NWS Central Illinois

Home | Current Version | Previous Version | Text Only | Print | Product List | Glossary On
Versions: 1 2 3 4 5 6 7 8 9 10 11 12 13 14 15 16 17 18 19 20 21 22 23 24 25 26 27 28 29 30 31 32 33 34 35 36 37 38 39 40 41 42 43 44 45 46 47 48 49 50
000
NZUS43 KILX 090410
HWRILX

AREA WEATHER ROUNDUP
NATIONAL WEATHER SERVICE, LINCOLN IL
1000 PM CST MON FEB 08 2016


CITY           SKY/WX    TMP DP  RH WIND       PRES   REMARKS
BLOOMINGTON    FLURRIES  19  14  81 NW20      29.82F WCI   3
CHAMPAIGN      FLURRIES  20  16  84 W15       29.82F WCI   6
DANVILLE       FLURRIES  21  17  85 W13G18    29.77S WCI   8
DECATUR        LGT SNOW  20  13  74 W13       29.85F WCI   7
EFFINGHAM      FLURRIES  21  17  84 W13       29.89S WCI   9
FLORA          FLURRIES  23  18  80 W8        29.90F WCI  14
GALESBURG      CLOUDY    17  11  77 NW16G22   29.87F WCI   2
JACKSONVILLE   CLOUDY    22  13  70 W21       29.91S WCI   6
LACON          CLOUDY    18  10  71 NW13G18   29.84S WCI   5
LAWRENCEVILLE  LGT SNOW  21  17  84 NW14      29.88S FOG     WCI   8
LITCHFIELD     FLURRIES  19  12  73 NW17G24   29.90F WCI   4
$$


CITY           SKY/WX    TMP DP  RH WIND       PRES   REMARKS
LINCOLN        CLOUDY    20  13  74 NW12G22   29.87S WCI   8
MACOMB         CLOUDY    18  14  82 NW16      29.92F WCI   4
MATTOON        FLURRIES  19  13  77 NW17      29.84S WCI   4
MT CARMEL AP   CLOUDY    23  16  74 W15       29.88S WCI  10
OLNEY-NOBLE AP CLOUDY    21  18  86 W16       29.89F WCI   7
PARIS          LGT SNOW  20  17  86 W17       29.82F WCI   6
PEORIA         CLOUDY    18   9  68 NW15G22   29.87S WCI   4
PONTIAC        CLOUDY    22  17  80 W17G25    29.81S WCI   8
RANTOUL        CLOUDY    22  17  80 NW17      29.80S WCI   8
ROBINSON       CLOUDY    20  14  77 W13G21    29.88S WCI   7
SPRINGFIELD    CLOUDY    20  12  71 NW14      29.89F WCI   7
TAYLORVILLE    FLURRIES  19  14  79 NW16      29.89S WCI   5
$$

...REGIONAL REPORTS...


CITY           SKY/WX    TMP DP  RH WIND       PRES   REMARKS
CHICAGO O`HARE LGT SNOW  23  19  85 W13       29.74S FOG     WCI  11
KANKAKEE       CLOUDY    25  18  73 W13G18    29.77S WCI  14
MOLINE         CLOUDY    18   9  68 NW16G25   29.87F WCI   3
MOUNT STERLING LGT SNOW  18  12  80 NW16      29.91F WCI   3
MOUNT VERNON   CLOUDY    21  14  73 W6        29.91S WCI  14
PITTSFIELD     FLURRIES  20  13  73 NW12      29.94F WCI   8
QUINCY         FLURRIES  18  11  74 NW18      29.93F WCI   2
ROCKFORD       CLOUDY    22  11  62 NW16      29.80S WCI   8
$$


CITY           SKY/WX    TMP DP  RH WIND       PRES   REMARKS
BURLINGTON     CLOUDY    18  10  71 NW20G26   29.90F WCI   2
CEDAR RAPIDS   LGT SNOW  15  12  88 NW17      29.89S FOG     WCI  -1
DES MOINES     FLURRIES  17   7  64 N23G31    30.00S WCI  -1
KIRKSVILLE     FLURRIES  20  12  71 NW15G21   29.97F WCI   6
OTTUMWA        FLURRIES  18  12  77 NW22      29.95F WCI   1
ST LOUIS       FLURRIES  24  12  60 NW17G28   29.94F WCI  11
$$


CITY           SKY/WX    TMP DP  RH WIND       PRES   REMARKS
TERRE HAUTE    FLURRIES  21  15  78 W9        29.83S WCI  11
EVANSVILLE     LGT SNOW  24  17  74 NW8       29.90F WCI  15
INDIANAPOLIS   FLURRIES  22  16  78 W12       29.75F WCI  10
LAFAYETTE      CLOUDY    22  18  85 W16       29.76F WCI   8
MADISON        LGT SNOW  15   9  76 NW10G21   29.79S WCI   2
MILWAUKEE      LGT SNOW  21  16  81 NW16G23   29.72S FOG     WCI   7
$$





USA.gov is the U.S. government's official web portal to all federal, state and local government web resources and services.